Hourly Data Report for June 26, 2008

HALIFAX STANFIELD INT'L A
NOVA SCOTIA

44°52'48.060" N
63°30'00.050" W
145.40 m
8202250
71395
YHZ

Download Data

Hourly Data (June 2008)
Hourly Data Report for June 26, 2008
TIME
LST
Temp Definition
°C
Dew Point Definition
°C
Rel Hum Definition
%
Precip. Amount Definition
mm

Wind Dir Definition
10's deg

Wind Spd Definition
km/h
Visibility Definition
km
Stn Press Definition
kPa
Hmdx Definition


Wind Chill Definition


Weather Definition


00:00 16.4 10.3 67   25 11 24.1 99.54     Mainly Clear
01:00 14.4 10.6 78     0 24.1 99.57     Clear
02:00 14.0 10.2 78   18 6 24.1 99.53     Clear
03:00 12.5 10.1 85   18 9 24.1 99.49     Clear
04:00 11.6 10.0 90   18 6 24.1 99.48     Mainly Clear
05:00 12.5 10.4 87   23 11 24.1 99.46     Mainly Clear
06:00 16.6 11.9 74   23 15 24.1 99.47     Mainly Clear
07:00 18.8 12.9 69   23 11 24.1 99.47     Mostly Cloudy
08:00 20.8 13.5 63   23 20 24.1 99.47     Mostly Cloudy
09:00 22.3 13.6 58   24 17 24.1 99.45 25   Mostly Cloudy
10:00 22.2 13.7 59   23 19 24.1 99.42 25   Cloudy
11:00 22.7 13.5 56   23 20 24.1 99.35 26   Mostly Cloudy
12:00 24.5 15.5 57   19 22 24.1 99.33 29   Mostly Cloudy
13:00 22.8 14.1 58   20 22 24.1 99.28 26   Rain Showers
14:00 24.9 15.6 56   21 26 24.1 99.25 29   Mostly Cloudy
15:00 22.8 15.2 62   21 20 24.1 99.23 27   Rain Showers
16:00 22.0 15.0 64   23 11 24.1 99.23 26   Mostly Cloudy
17:00 23.0 14.4 58   23 11 24.1 99.20 27   Mostly Cloudy
18:00 22.3 14.4 61   27 6 24.1 99.20 26   Mostly Cloudy
19:00 21.2 14.5 66   35 6 24.1 99.23 25   Mostly Cloudy
20:00 19.7 14.7 73   1 7 24.1 99.23     Mostly Cloudy
21:00 18.3 14.6 79   11 7 24.1 99.28     Mostly Cloudy
22:00 16.6 14.6 88   18 6 24.1 99.32     Mostly Cloudy
23:00 16.5 14.2 86   18 4 24.1 99.31     Mostly Cloudy

Notes on Data Quality.

Legend

  • E = Estimated
  • M = Missing
  • NA = Not Available*
  • [empty] = Indicates an unobserved value
Date modified: